+ View the NASA Portal
+ Center for Near-Earth Object Studies
IMPORTANT:
The SSD Announcement email list is now available. Major changes are coming in the near future, including possible hostname and/or URL changes. To be notified of such changes, subscribe to this email list.
Please visit
this page
for more details.
Don't show this message again
JPL Small-Body Database Browser
Search:
[
help
]
447598 (2006 UG85)
Classification:
Main-belt Asteroid
SPK-ID:
2447598
[
Ephemeris
|
Orbit Diagram
|
Orbital Elements
|
Mission Design
|
Physical Parameters
|
Discovery Circumstances
]
[ show orbit diagram ]
Orbital Elements at Epoch 2458600.5 (2019-Apr-27.0) TDB
Reference:
JPL 12
(heliocentric ecliptic J2000)
Element
Value
Uncertainty (1-sigma)
Units
e
.1586326760214177
9.4826e-08
a
2.796926701256613
5.5934e-08
au
q
2.35324273400052
2.7304e-07
au
i
24.96347510598358
1.2827e-05
deg
node
37.73569791578027
2.2395e-05
deg
peri
93.3560056973442
4.9903e-05
deg
M
172.0975257190853
3.7511e-05
deg
t
p
2457783.744288658342
(2017-Jan-30.24428866)
0.00018123
TDB
period
1708.519950269042
4.68
5.1252e-05
1.403e-07
d
yr
n
.2107086896721988
6.3208e-09
deg/d
Q
3.240610668512705
6.4807e-08
au
Orbit Determination Parameters
# obs. used (total)
113
data-arc span
3839 days (10.51 yr)
first obs. used
2006-09-25
last obs. used
2017-03-30
planetary ephem.
DE431
SB-pert. ephem.
SB431-N16
condition code
0
norm. resid. RMS
.57274
source
ORB
producer
Otto Matic
solution date
2017-Apr-09 11:37:54
Additional Information
Earth MOID
= 1.51002 au
Jupiter MOID
= 2.09455 au
T_jup
= 3.173
[ show covariance matrix ]
[
Ephemeris
|
Orbit Diagram
|
Orbital Elements
|
Mission Design
|
Physical Parameters
|
Discovery Circumstances
]
Physical Parameter Table
Parameter
Symbol
Value
Units
Sigma
Reference
Notes
absolute magnitude
H
16.4
n/a
MPO409029
447598 (2006 UG85)
Discovered 2006-Oct-17 by Spacewatch at Kitt Peak
Reference:
Last Updated:
2015-10-28
[
Ephemeris
|
Orbit Diagram
|
Orbital Elements
|
Mission Design
|
Physical Parameters
|
Discovery Circumstances
]
2019-Dec-11 06:27 UT
(server date/time)
Site Manager:
Ryan S. Park
Webmaster
:
Alan B. Chamberlin